User: anonymous   Login
Location: Unspecified
(0.0000°N, 0.0000°E)
Time: 22:55:48
(UTC+00:00)
Language:

XW-2E - Orbit

View from above orbital plane
View from above orbital plane
View from above satellite
View from above satellite

Ground track
Ground track

The orbit data is extracted from the following two-line orbital elements,

1 40909U 15049L   18113.55559114  .00001200  00000-0  64191-4 0  9998
2 40909  97.4568 119.5942 0012992 210.6780 149.3695 15.16901825143330
Epoch (UTC): 23 April 2018 13:20:03
Eccentricity: 0.0012992
inclination: 97.4568°
perigee height: 506 km
apogee height: 524 km
right ascension of ascending node: 119.5942°
argument of perigee: 210.6780°
revolutions per day: 15.16901825
mean anomaly at epoch: 149.3695°
orbit number at epoch: 14333

The dashed part of the orbit path shows where the satellite is in the earth's shadow,  

DLR